Startseite
Über Mich
AHP4
Galerie
Sehschlangen
Tourenbuch
Bookmarks
Elektronik
Bewertung
Geschichten
[Tagesmessung] [Jahreswerte] [Information]

Messwerte vom 27.05.2022

Die letzten Messwerte von 23:58:48 Uhr:
KategorieMesswert
Temperatur [°C]10
Luftdruck [mBar]1001
Sonneneinstrahlung0
Wind [km/h]6 aus Nordwest
Niederschlag [l/m²]0
rel.Luftfeucht.78.7%
CO2 [ppm]427

Diagramme
Messwerte vom 27.05.2022
Tagesaggregation
KategorieMinimumMaximumSchnittSumme
Temperatur [°C]92214.8604
Luftdruck [mBar]9981002999.5396
Sonneneinstrahlung248134.4229
Wind [km/h]17
rF [%]4096.675.6
Niederschlag [l/m²]10.3
CO2 [ppm]403454429.6
Einordnung alsVegetationstag

Messungen an benachbarten Tagen: Zur Jahresaggregation 2022
Tabelle aller Messwerte
UhrzeitTemperatur [°C]Luftdruck [mBar]SonneWind [km/h]RichtungRegen [l/m²]rF [%]CO2 [ppm]
00:01:48 15 1002 0 4 NW 0 83.8 425
00:04:46 15 1002 0 3 N 0 84.8 430
00:07:48 15 1001 0 2 S 0 85.3 428
00:10:46 14 1002 0 3 S 0 86.4 434
00:13:49 14 1001 0 1 W 0 87.1 433
00:16:48 14 1002 0 2 O 0 88.7 431
00:19:48 14 1001 0 0 W 0 89.5 433
00:22:48 14 1002 0 0 SO 0 90 436
00:25:48 14 1001 0 0 NO 0 90.2 431
00:28:48 14 1001 0 2 W 0 90.7 430
00:31:49 14 1001 0 0 SO 0 90.9 436
00:34:48 14 1001 0 0 SO 0 91.4 439
00:37:48 14 1001 0 0 O 0 91.6 437
00:40:47 14 1001 0 0 S 0 92.1 439
00:43:48 14 1000 0 1 SO 0.2575 92.7 436
00:46:46 14 1001 0 2 S 0 93 445
00:49:50 14 1001 0 1 W 0 93.7 440
00:52:46 14 1001 0 0 NO 0 93.9 442
00:55:46 14 1001 0 2 S 0 94.1 437
00:58:48 14 1001 0 4 SW 0 95.2 442
01:01:48 14 1000 0 0 SW 0.2575 96.2 437
01:04:46 14 1002 0 1 S 0 96.6 434
01:07:46 14 1001 0 1 S 0 96.6 428
01:10:47 14 1000 0 1 SO 0 96.6 431
01:13:48 14 1000 0 1 SO 0 96.6 429
01:16:45 14 1000 0 4 S 0 96.6 430
01:19:49 14 1001 0 2 SO 0 96.6 428
01:22:46 14 1001 0 6 W 0 96.6 428
01:25:47 14 1000 0 2 NO 0 96.6 431
01:28:47 14 1000 0 1 S 0 96.6 436
01:31:47 14 1000 0 3 S 0 96.6 434
01:34:48 14 1001 0 0 SO 0 96.6 436
01:37:47 14 1000 0 5 SW 0 96.6 439
01:40:46 14 1000 0 4 S 0 96.6 437
01:43:46 14 999 0 4 SW 0 96.6 433
01:46:47 14 1001 0 3 W 0 96.6 436
01:49:45 14 999 0 5 S 0 96.6 427
01:52:45 14 1001 0 2 O 0 96.6 434
01:55:47 14 999 0 2 SW 0 96.6 427
01:58:46 14 999 0 5 W 0 96.6 428
02:01:48 14 999 0 2 SW 0 96.6 424
02:04:47 14 999 0 4 SO 0 96.6 425
02:07:48 14 1000 0 3 SW 0 96.6 427
02:10:49 14 1000 0 12 S 0 96.6 434
02:13:48 14 999 0 6 NO 0 96.6 436
02:16:47 14 999 0 4 W 0 96.6 439
02:19:48 14 999 0 3 SW 0 96.6 437
02:22:46 14 999 0 2 S 0 96.6 434
02:25:47 14 999 0 3 SO 0 96.6 431
02:28:48 14 999 0 1 NO 0 96.6 430
02:31:47 14 999 0 1 W 0.2575 96.6 433
02:34:48 14 1000 0 13 SO 0 96.6 434
02:37:48 14 999 0 6 NO 0 96.6 436
02:40:48 14 999 0 4 SO 0 96.6 436
02:43:47 14 999 0 6 SW 0 96.6 439
02:46:47 14 999 0 3 SO 0 96.6 436
02:49:47 14 999 0 2 O 0 96.6 442
02:52:48 14 999 0 4 S 0 96.6 445
02:55:47 14 999 0 1 SW 0 96.6 439
02:58:47 14 999 0 5 O 0 96.6 436
03:01:47 14 999 0 2 S 0 96.6 436
03:04:47 14 999 0 2 NW 0 96.6 433
03:07:49 14 999 0 1 NW 0 96.6 439
03:10:48 14 999 0 1 SW 0 96.6 439
03:13:45 14 999 0 1 O 0 96.6 436
03:16:47 14 999 0 2 SW 0 96.6 439
03:19:46 14 998 0 0 S 0 96.6 442
03:22:48 14 999 0 2 SO 0 96.6 439
03:25:46 14 998 0 4 SW 0.2575 96.6 437
03:28:50 14 999 0 3 NO 0 96.6 439
03:31:46 14 998 0 2 S 0 96.6 434
03:34:49 14 999 0 1 SO 0 96.6 434
03:37:46 14 999 0 1 0.2575 96.6 431
03:40:48 14 998 0 0 SW 0 96.6 440
03:43:47 14 999 0 4 SO 0.2575 96.6 439
03:46:46 14 998 0 4 SO 0.2575 96.6 443
03:49:46 14 999 0 0 S 0.515 96.6 442
03:52:44 14 998 0 1 S 0.515 96.6 436
03:55:46 14 998 0 0 W 0.7725 96.6 439
03:58:48 14 999 0 0 NO 0.2575 96.6 436
04:01:50 13 999 0 2 SW 0 96.6 436
04:04:46 13 998 0 0 W 0 96.6 439
04:07:47 14 998 0 0 SW 0 96.6 437
04:10:49 14 998 0 1 O 0 96.6 442
04:13:44 14 999 0 1 N 0.2575 96.6 442
04:16:48 14 998 0 1 SO 0 96.6 437
04:19:45 13 998 0 0 S 0 96.6 436
04:22:47 13 998 0 4 SW 0.2575 96.6 436
04:25:48 13 999 0 7 SW 0 96.6 442
04:28:51 13 998 0 2 SW 0.2575 96.6 445
04:31:46 13 998 0 2 S 0 96.6 443
04:34:48 13 998 0 1 SO 0 96.6 448
04:37:45 13 999 0 1 N 0.2575 96.6 445
04:40:47 13 998 0 4 S 0 96.6 445
04:43:49 13 998 0 3 S 0.2575 96.6 444
04:46:48 13 998 0 1 NO 0 96.6 442
04:49:45 13 999 0 6 W 0.2575 96.6 448
04:52:47 13 998 3 2 SW 0 96.6 442
04:55:45 13 998 4 1 S 0.515 96.6 442
04:58:47 13 998 8 5 S 0.2575 96.6 436
05:01:46 13 998 11 2 SW 0.515 96.6 436
05:04:48 13 998 10 4 S 0.2575 96.6 442
05:07:47 13 999 12 3 0 96.6 448
05:10:49 13 999 10 5 SW 0.2575 96.6 445
05:13:48 13 999 3 6 SW 0.515 96.6 442
05:16:48 12 999 9 5 SO 0.515 96.6 442
05:19:48 12 999 25 11 W 0.515 96.6 442
05:22:46 11 999 27 4 N 0.2575 96.6 451
05:25:47 11 999 39 4 NW 0.2575 96.6 453
05:28:49 11 999 43 4 N 0 96.6 454
05:31:47 11 999 40 4 NW 0.2575 96.6 453
05:34:47 11 999 47 2 NW 0 96.6 451
05:37:48 11 999 49 2 W 0.2575 96.6 454
05:40:49 11 999 56 2 W 0 96.6 454
05:43:47 11 999 69 2 SW 0.2575 96.6 444
05:46:45 11 999 82 4 W 0 96.6 442
05:49:48 11 999 78 3 SW 0 96.6 445
05:52:47 11 998 84 1 O 0.2575 96.6 448
05:55:47 11 999 83 2 O 0 96.6 443
05:58:48 11 999 83 1 NW 0 96.6 439
06:01:48 11 999 102 1 S 0 96.6 445
06:04:50 11 999 122 0 SO 0 96.6 446
06:07:49 11 999 129 9 SW 0 96.6 442
06:10:47 11 999 135 0 S 0 96.6 448
06:13:48 11 998 135 3 W 0 96.6 450
06:16:47 11 999 140 0 S 0 96.6 442
06:19:48 12 999 134 1 SW 0 96.6 443
06:22:48 12 999 137 2 O 0 96.6 445
06:25:51 12 999 144 4 S 0 96.6 443
06:28:48 12 999 132 0 SW 0 96.6 439
06:31:47 12 999 130 3 SW 0 96.6 442
06:34:48 12 999 152 2 W 0 96.6 448
06:37:50 12 999 122 2 SW 0 96.6 454
06:40:52 12 999 134 0 NW 0 96.6 451
06:43:49 12 999 140 0 SW 0 96.6 445
06:46:49 12 999 161 0 SO 0 96.6 444
06:49:47 12 999 166 1 SW 0 96.6 445
06:52:46 12 998 158 0 W 0 96.6 447
06:55:49 12 999 177 3 SO 0 96.6 442
06:58:48 12 999 190 4 W 0 96.6 439
07:01:49 12 999 190 0 SW 0 96.6 439
07:04:49 12 999 189 2 S 0 96.6 442
07:07:48 12 999 194 2 S 0 96.6 443
07:10:47 12 999 194 3 S 0 96.6 442
07:13:50 12 999 198 1 SO 0 96.6 442
07:16:49 12 999 201 1 SO 0 96.6 451
07:19:48 12 998 201 4 W 0 96.6 450
07:22:47 13 999 200 0 W 0 96.6 451
07:25:47 13 998 197 0 O 0 96.6 445
07:28:47 13 999 199 3 SW 0 96.6 448
07:31:49 13 999 197 0 NW 0 96.6 448
07:34:49 13 999 203 0 W 0 96.6 442
07:37:49 13 1000 203 2 NW 0 96.6 442
07:40:50 13 999 200 0 W 0 96.6 445
07:43:47 13 1000 205 1 SO 0 96.6 442
07:46:51 13 999 205 2 S 0 96.6 448
07:49:49 13 1000 208 1 NW 0 96.6 451
07:52:48 14 1000 208 5 S 0 96.6 451
07:55:49 14 1000 210 2 W 0 96.6 448
07:58:48 14 1000 210 1 SW 0 96.6 447
08:01:51 14 999 209 1 NW 0 96.6 445
08:04:47 14 1000 210 2 S 0 96.6 439
08:07:47 14 999 210 5 S 0 96.6 444
08:10:49 14 1000 210 1 W 0 96.6 436
08:13:48 14 1000 209 4 W 0 96.6 439
08:16:49 14 999 208 1 SW 0 96.6 436
08:19:49 14 999 208 4 SO 0 96.6 445
08:22:48 14 1000 206 1 S 0 96.6 448
08:25:47 14 999 203 1 NO 0 96.6 445
08:28:47 14 999 202 0 S 0 96.6 445
08:31:50 14 999 200 2 SW 0 96.6 448
08:34:46 14 999 203 4 O 0 96.6 445
08:37:49 14 1000 200 3 S 0 96.6 442
08:40:52 14 1000 200 1 W 0 96.6 442
08:43:49 14 1000 199 2 S 0 96.6 450
08:46:51 14 1000 199 5 NW 0 96.6 448
08:49:50 14 1000 198 2 W 0 96.6 453
08:52:48 14 1000 197 1 NW 0 96.6 454
08:55:46 14 1000 203 4 W 0 96.6 451
08:58:49 14 999 206 3 SW 0 96.6 448
09:01:49 14 1000 209 2 S 0 95.7 442
09:04:48 14 1000 211 1 SO 0 95 442
09:07:47 14 1000 217 5 W 0 95.9 439
09:10:48 15 1000 221 1 O 0 95.8 442
09:13:49 15 1000 217 6 SO 0 94.6 439
09:16:49 15 1000 214 0 NW 0 91.8 436
09:19:49 15 1000 211 8 W 0 87.9 442
09:22:49 15 1000 218 7 NW 0 86.8 438
09:25:50 15 999 220 9 NW 0 85.8 442
09:28:48 15 1000 219 3 S 0 87.1 445
09:31:49 15 1000 209 6 NW 0 87.1 451
09:34:48 15 1000 211 3 NW 0 87.4 451
09:37:46 15 1000 216 1 S 0 87.7 447
09:40:47 15 1000 193 1 W 0 88.7 433
09:43:47 15 1000 207 3 S 0 90.3 434
09:46:50 15 1000 186 0 NW 0 90.4 430
09:49:48 15 1000 203 3 W 0 89.6 427
09:52:50 15 999 203 1 S 0 90.7 436
09:55:48 15 1001 195 6 NO 0 90.9 434
09:58:47 14 1001 214 1 S 0 91 437
10:01:47 14 1000 216 1 SW 0 91 442
10:04:48 15 1000 220 4 W 0 91.6 444
10:07:49 15 1000 220 2 W 0 91.8 439
10:10:50 15 1000 216 3 SO 0 91.5 436
10:13:48 15 999 212 5 W 0 90 436
10:16:49 15 1000 209 3 NW 0 85.8 439
10:19:49 15 1000 215 0 S 0 85.4 436
10:22:49 15 1000 214 0 S 0 87.1 442
10:25:48 15 1000 204 5 SO 0 87.3 439
10:28:50 15 1000 207 3 NO 0 88.3 440
10:31:49 15 1000 199 4 SW 0 88.5 439
10:34:47 15 1000 213 2 W 0 88.2 440
10:37:47 16 999 215 3 W 0 87.8 445
10:40:48 16 1000 200 5 W 0 85.6 442
10:43:51 16 999 209 6 NW 0 83.1 446
10:46:48 16 1000 210 4 SW 0 82.2 439
10:49:48 16 999 218 11 W 0 82 433
10:52:50 17 1000 217 3 NW 0 77.9 428
10:55:47 17 999 215 6 SW 0 77.6 438
10:58:51 17 1000 220 14 SW 0 76.9 439
11:01:48 17 999 222 7 SW 0 76.4 442
11:04:49 17 1000 218 3 W 0 76.7 442
11:07:48 17 1000 214 7 W 0 76.7 439
11:10:46 16 1000 210 5 W 0 74.1 436
11:13:47 16 1000 214 6 W 0 74.8 424
11:16:48 16 1000 222 2 SW 0 75.7 427
11:19:49 17 1000 218 2 SW 0 75.1 427
11:22:47 17 1000 226 7 W 0 74.6 428
11:25:48 17 1000 219 6 S 0 74.3 430
11:28:33 16 1000 216 5 SW 0 67.3 433
11:31:49 17 999 215 5 SW 0 70.8 436
11:34:47 17 999 213 6 NO 0 73.7 430
11:37:48 17 1000 217 5 N 0 74.8 433
11:40:48 17 1000 215 1 N 0 73.2 434
11:43:50 17 999 218 2 NW 0 73 433
11:46:46 17 999 215 2 N 0 72.3 434
11:49:50 17 999 212 2 NW 0 70.8 431
11:52:49 17 999 218 2 SW 0 69.5 433
11:55:48 17 999 199 5 O 0 68.4 436
11:58:47 17 1000 213 2 SO 0 68.5 430
12:01:52 18 999 219 13 NW 0 63.6 430
12:04:48 19 999 215 3 S 0 63.5 428
12:07:49 19 999 202 5 SW 0 63.9 428
12:10:47 20 999 213 7 W 0 59.1 427
12:13:48 20 999 217 4 SO 0 58.7 428
12:16:32 18 998 219 4 SW 0 51.7 424
12:19:49 20 999 212 17 NW 0 53.5 430
12:22:49 20 999 220 6 NW 0 55 427
12:25:48 20 999 218 6 W 0 58.9 430
12:28:49 20 999 219 7 SO 0 54.6 431
12:31:49 21 999 225 8 NW 0 54.5 431
12:34:31 19 999 225 15 O 0 46.5 430
12:37:48 21 999 227 10 W 0 51.3 424
12:40:50 21 998 221 8 SW 0 50.6 428
12:43:50 21 999 224 6 W 0 53.2 425
12:46:49 21 999 219 6 S 0 52.9 421
12:49:48 20 999 219 5 SW 0 51.8 425
12:52:49 21 999 223 6 O 0 52.9 428
12:55:50 21 999 223 3 SO 0 53.1 433
12:58:47 21 999 221 7 W 0 52.1 430
13:01:48 21 999 226 1 W 0 50.7 427
13:04:47 20 999 213 5 W 0 52.5 433
13:07:49 20 999 213 12 S 0 53.4 433
13:10:47 19 999 212 8 W 0 53.1 430
13:13:47 18 1000 226 2 N 0 57.7 427
13:16:48 19 999 219 6 SW 0 58.9 424
13:19:49 20 999 223 3 SW 0 58.5 433
13:22:46 22 999 231 1 W 0 56.4 427
13:25:49 22 999 226 2 S 0 52.1 424
13:28:47 22 999 211 2 S 0 51.9 424
13:31:51 20 999 208 5 NO 0 50.9 425
13:34:47 19 998 221 11 N 0 55 424
13:37:46 18 999 223 1 S 0 55.8 430
13:40:50 18 999 223 2 SW 0 59.5 428
13:43:50 18 999 217 7 NW 0 60.2 422
13:46:47 18 999 212 4 SO 0 60.6 418
13:49:49 17 999 220 7 W 0 58.6 427
13:52:49 17 999 218 7 SO 0 57.2 427
13:55:46 17 999 211 8 NW 0 57.6 430
13:58:47 17 999 218 4 SW 0 55.2 431
14:01:48 17 999 229 3 W 0 56.1 436
14:04:48 17 999 230 9 N 0 57.4 431
14:07:48 18 999 217 4 N 0 56.5 428
14:10:49 18 999 217 10 S 0 53.2 430
14:13:49 18 999 233 9 NO 0 52.5 427
14:16:47 17 999 240 6 NW 0 53.1 431
14:19:49 18 999 240 7 NW 0 55.1 428
14:22:47 19 999 239 5 SW 0 55 430
14:25:47 20 999 228 11 SW 0 52.9 427
14:28:46 19 1000 241 5 W 0 51.9 427
14:31:49 19 999 224 1 O 0 52.8 427
14:34:48 20 998 242 8 S 0 53.2 424
14:37:49 20 999 242 17 SW 0 49.8 427
14:40:51 21 999 242 7 NW 0 50.2 428
14:43:33 19 999 243 7 NO 0 40 434
14:46:30 19 1000 227 14 N 0 40 424
14:49:49 20 999 229 12 NW 0 43.6 427
14:52:47 19 999 223 9 W 0 47.1 422
14:55:45 18 999 244 9 W 0 48.5 421
14:58:47 18 999 244 12 O 0 49.3 418
15:01:47 19 999 244 5 O 0 54.1 424
15:04:48 20 999 244 4 SW 0 53.1 418
15:07:46 20 999 242 7 W 0 47.5 421
15:10:48 20 999 245 4 W 0 47 421
15:13:48 20 999 244 6 W 0 45.9 424
15:16:49 21 999 245 10 W 0 45.8 421
15:19:48 21 999 245 5 S 0 45.7 418
15:22:47 21 999 246 9 NW 0 44.5 424
15:25:46 20 999 245 8 NW 0 43.1 421
15:28:49 21 999 246 7 W 0 43 424
15:31:46 21 999 237 4 NW 0 44.4 425
15:34:51 20 999 244 3 NW 0 45.2 424
15:37:48 20 1000 205 7 W 0 45.8 424
15:40:47 19 999 207 5 S 0 44.9 419
15:43:48 18 999 208 9 S 0 46 419
15:46:49 17 999 214 4 NO 0 50 416
15:49:49 17 999 215 6 SW 0 53.6 419
15:52:48 16 999 220 15 W 0 53.5 413
15:55:48 16 999 216 17 W 0 53.8 413
15:58:48 16 1000 214 7 SW 0 55.4 421
16:01:50 16 1000 229 6 SO 0 55.6 427
16:04:50 16 999 239 0 S 0 57.2 425
16:07:48 16 999 245 3 O 0 58 419
16:10:48 18 1000 246 4 SW 0 56.3 413
16:13:50 19 999 247 8 NW 0 52.3 415
16:16:45 19 999 247 5 W 0 51.7 410
16:19:47 19 999 247 5 NO 0 49.7 410
16:22:49 20 1000 247 13 W 0 48.7 419
16:25:51 21 999 247 6 NW 0 46.4 416
16:28:49 21 999 247 5 SO 0 46.6 415
16:31:51 21 999 228 4 NW 0 46.7 416
16:34:48 19 999 225 4 NW 0 45.9 416
16:37:34 19 1000 220 15 W 0 40 409
16:40:48 17 999 233 7 NW 0 52.7 410
16:43:48 17 999 243 7 NW 0 54.9 412
16:46:48 18 999 247 3 S 0 55.3 407
16:49:46 20 999 247 5 S 0 53.2 407
16:52:48 21 999 247 4 SO 0 47.6 409
16:55:47 21 999 231 4 O 0 40.5 410
16:58:48 20 999 247 11 SW 0 41.1 415
17:01:49 19 998 228 10 O 0 43.2 418
17:04:45 18 999 227 8 W 0 44.3 415
17:07:48 17 999 223 8 NW 0 47.7 409
17:10:47 17 1000 226 4 N 0 49.8 404
17:13:49 17 1000 247 10 W 0 51 406
17:16:45 17 999 231 5 N 0 50.9 404
17:19:48 17 1000 243 4 S 0 50.3 413
17:22:47 18 1000 241 7 W 0 50 416
17:25:47 18 1000 229 4 W 0 48.1 415
17:28:49 18 999 218 6 NW 0 47 413
17:31:46 17 1000 247 4 W 0 47.4 410
17:34:49 18 1000 247 6 SW 0 48.5 410
17:37:32 17 999 247 4 O 0 40 416
17:40:47 21 1000 248 4 W 0 44.2 407
17:43:47 22 999 248 3 SO 0 41.3 410
17:46:48 21 1000 222 6 S 0 40.5 407
17:49:48 19 1000 247 4 W 0 44.9 413
17:52:50 20 999 247 9 SW 0 44.1 405
17:55:49 21 999 235 11 SW 0 42.6 407
17:58:48 20 999 229 5 S 0 41.8 407
18:01:49 19 1000 247 13 N 0 45 409
18:04:47 19 1000 215 5 W 0 45.1 406
18:07:49 19 999 191 4 S 0 44 410
18:10:48 17 1000 192 4 SW 0 45.1 410
18:13:49 17 999 220 8 W 0 49 407
18:16:46 16 999 230 4 W 0 49.7 407
18:19:49 16 999 247 6 NW 0 49.8 410
18:22:49 18 1000 247 12 S 0 48.8 409
18:25:32 16 1000 247 15 S 0 40 409
18:28:49 19 999 228 6 NW 0 44.8 404
18:31:49 18 1000 247 4 W 0 44.8 415
18:34:48 18 999 215 9 NW 0 45.4 410
18:37:47 17 999 208 8 O 0 46 413
18:40:49 16 999 206 2 SW 0 50.1 407
18:43:47 16 1000 246 7 W 0 51.4 410
18:46:47 17 1000 246 3 SW 0 53.4 413
18:49:31 16 999 245 9 SW 0 40 415
18:52:48 17 1000 246 6 W 0 48.7 413
18:55:49 17 1000 240 16 SW 0 48.3 407
18:58:48 16 999 227 5 NO 0 49.6 405
19:01:47 16 999 209 6 S 0 51.5 407
19:04:47 16 1000 215 4 N 0 52.6 411
19:07:48 15 1000 218 1 W 0 54.3 407
19:10:47 15 999 216 0 S 0 54.6 407
19:13:48 15 999 215 5 N 0 54.3 410
19:16:48 15 999 214 6 SW 0 54.3 418
19:19:50 15 1000 207 3 SW 0 55.1 413
19:22:47 15 999 194 3 SO 0 55.7 407
19:25:50 14 1000 192 13 N 0 56.4 406
19:28:50 14 999 222 3 SW 0 56.5 407
19:31:47 14 999 224 3 W 0 57.3 415
19:34:51 15 1000 207 3 NW 0 58 413
19:37:46 15 1000 202 1 S 0 57.8 413
19:40:46 15 999 201 2 W 0 57.3 410
19:43:49 14 1000 211 6 W 0 57.1 412
19:46:46 14 999 213 6 S 0 56.9 413
19:49:46 15 999 211 4 O 0 56.4 411
19:52:51 15 1000 203 6 S 0 56.6 407
19:55:48 15 1000 194 7 SW 0 56.2 407
19:58:48 14 1000 193 2 SW 0 56.6 407
20:01:48 14 1000 190 6 SW 0 57.1 410
20:04:48 14 999 183 10 W 0 57.4 413
20:07:47 14 999 184 3 SO 0 58.1 407
20:10:50 14 1000 179 10 W 0 57.4 410
20:13:48 14 1000 161 6 NO 0 57.5 403
20:16:46 13 1000 151 2 S 0 58 409
20:19:47 13 1000 122 5 N 0 58.2 416
20:22:48 13 999 113 5 SO 0 58.6 419
20:25:50 13 1001 123 11 NW 0 58.7 419
20:28:35 12 1000 173 12 NW 0 50.5 416
20:31:45 12 1000 171 4 W 0 66.7 419
20:34:46 12 1001 145 0 O 0 70.3 416
20:37:49 11 1000 131 1 SW 0 71.1 416
20:40:48 11 1000 98 0 SW 0 72.9 413
20:43:49 11 1001 88 0 SO 0 74.5 422
20:46:49 11 1001 101 0 S 0 76 419
20:49:49 11 1000 134 1 W 0 76.6 416
20:52:49 11 1000 145 0 SW 0 76.6 415
20:55:50 11 1000 146 2 NW 0 76.7 419
20:58:47 11 1001 127 1 SW 0 76.4 419
21:01:49 11 1001 118 4 SW 0 76.7 425
21:04:48 11 1000 107 0 O 0 76.5 419
21:07:47 11 1000 84 0 O 0 76.1 415
21:10:49 11 999 59 1 S 0 76.7 416
21:13:50 11 1001 62 0 SW 0 76.6 413
21:16:47 11 1000 73 2 S 0 76.3 419
21:19:47 11 1000 64 2 S 0 76.1 419
21:22:47 11 1000 39 0 NW 0 74.5 415
21:25:46 11 999 27 3 S 0 74 417
21:28:48 11 1000 33 0 S 0 74 424
21:31:50 11 1000 20 3 S 0 73.9 423
21:34:45 11 1000 13 2 NW 0 73.6 421
21:37:46 12 1001 17 0 W 0 72.7 418
21:40:46 12 1001 13 1 S 0 71.8 418
21:43:49 12 1000 9 6 O 0 71.3 418
21:46:47 12 1001 5 4 NW 0 71 427
21:49:45 12 1001 3 4 N 0 70.4 421
21:52:48 12 1000 3 3 NW 0 70.4 419
21:55:48 12 1001 3 11 NW 0 70.5 413
21:58:48 11 1002 0 10 SW 0 71.7 422
22:01:46 11 1001 0 7 W 0 72.2 424
22:04:48 11 1001 0 6 SW 0 72.6 430
22:07:47 11 1001 0 7 NW 0 73.3 433
22:10:46 11 1001 0 1 W 0 73.2 436
22:13:46 11 1001 0 2 W 0 73.8 433
22:16:49 11 1001 0 5 SW 0 74.2 428
22:19:46 11 1001 0 5 S 0 73.9 424
22:22:46 10 1001 0 3 O 0 73.8 421
22:25:48 10 1001 0 11 NW 0 74.5 419
22:28:47 11 1001 0 3 O 0 75 427
22:31:46 11 1001 0 5 N 0 75.1 431
22:34:48 10 1001 0 0 SW 0 74.9 421
22:37:47 10 1000 0 3 W 0 75 425
22:40:46 10 1001 0 0 S 0 75.9 426
22:43:49 10 1001 0 3 NW 0 76.2 428
22:46:47 10 1000 0 0 SO 0 77.1 436
22:49:44 10 1001 0 0 O 0 77.4 439
22:52:46 10 1001 0 1 S 0 78.1 430
22:55:48 9 1002 0 7 S 0 78.3 423
22:58:46 9 1001 0 0 SO 0 78.8 428
23:01:50 9 1001 0 2 SO 0 78.9 422
23:04:47 9 1001 0 3 SO 0 78.9 427
23:07:45 9 1000 0 7 O 0 79.3 428
23:10:47 9 1000 0 5 NO 0 80.1 430
23:13:48 9 1001 0 2 SW 0 80.4 424
23:16:47 9 1000 0 1 O 0 80.6 424
23:19:46 9 1000 0 6 SO 0 80.8 425
23:22:46 9 1001 0 3 NW 0 80.4 427
23:25:48 10 1001 0 6 W 0 79.5 431
23:28:48 10 1001 0 4 SW 0 79.2 434
23:31:45 10 1001 0 3 S 0 78.1 437
23:34:46 10 1001 0 5 S 0 77.4 428
23:37:46 10 1001 0 2 S 0 77.3 431
23:40:48 10 1000 0 1 W 0 77.8 431
23:43:48 10 1000 0 1 SO 0 77.9 430
23:46:49 10 1000 0 2 NO 0 77.9 428
23:49:45 10 1000 0 5 S 0 77.9 425
23:52:48 10 1001 0 1 S 0 77.8 422
23:55:47 10 1000 0 5 NW 0 78.2 422
23:58:48 10 1001 0 6 NW 0 78.7 427

Letzte Änderung : 04-Jan-2022
Copyright Jens Köhler, Wolfsburg, Obere Dorfstraße 10d